Weather in Calapan

Philippines     13°24′19″N   121°10′33″E
temp.,
°C
wind,
m/s
gust,
m/s
humid.,
%
clouds,
%
prec.,
mm/h
press.,
hPa
HPBL,
m
24 may, tue
tue2423:00+29nw2275100 1.5 1010393
02:00+28nw337994 4.8 1009260
05:00+27nw227918 0.1 1010309
08:00+27sse11785 0.7 1012273
11:00+28ese33755 0.0 1011259
14:00+29se557036 0.1 1009510
17:00+30se55735 0.1 1009598
20:00+29se447510 0.8 1010463
25 may, wed
wed2523:00+29se44775 0.0 1011471
02:00+29se3477100 0.0 1009539
05:00+28se33788 0.0 1010559
08:00+28sse228063 0.1 1011238
11:00+29ese2278100 0.1 1010211
14:00+29sse337490 0.6 1008422
17:00+29wsw1172100 1.4 1007211
20:00+30wnw3473100 1.8 1009454
26 may, thu
thu2623:00+28nw3476100 6.2 1010175
02:00+28wnw347797 8.9 1008273
05:00+28sw1175100 0.0 1008251
08:00+28sse3277100 0.0 1009258
11:00+29se3472100 0.0 1008357
14:00+29se5572100 0.0 1006521
17:00+29se4471100 0.4 1006499
20:00+29sse227295 0.9 1008456
27 may, fri
fri2723:00+29w1173100 1.4 1009200
02:00+28n127697 3.2 1007101
05:00+28se1175100 0.4 1007344
08:00+28se117595 0.4 1008300
11:00+28se33765 0.0 1008369
14:00+29se44727 0.2 1006438
17:00+29se3373100 1.3 1006369
20:00+29ese2272100 1.9 1008366
28 may, sat
sat2823:00+29n2274100 1.1 1009267
02:00+28nw2278100 3.9 1006157
05:00+28nne1275100 2.9 100793
08:00+28ssw217363 4.4 1008243
11:00+29ese337337 0.5 1008309
14:00+29se4469100 0.6 1006493
17:00+28se3272100 0.8 1006394
20:00+29ne0170100 1.5 1008288